Location: *
(37.9500°N, 27.3666°E)
Time: 13:56:11
(UTC+00:00)

Cosmos 2333 Rocket - Pass Details

Date: 24 October 2021
Orbit: 837 x 865 km, 70.8° (Epoch: 03 December)

Event Time Altitude Azimuth Distance (km) Brightness Sun altitude
Rises 18:19:55 0° 228° (SW) 3,383 5.7 -35.8°
Reaches altitude 10° 18:22:36 10° 238° (WSW) 2,456 5.0 -36.3°
Enters shadow 18:27:31 32° 299° (WNW) 1,419 3.7 -37.2°
